Home   Weather   Ibiza   Past weeks

Flag for Spain Past Weather in Ibiza, Ibiza, Spain — Yesterday and Last 2 Weeks

Now
51 °F

Cool.


Feels Like: 49 °F
Forecast: 42 / 57 °F
Wind: 7 mph from North

Location: Ibiza / Es Codola

Current Time: Jan 24, 2017 at 4:18:33 am

Latest Report: Jan 24, 2017 at 3:00 am


Visibility: N/A

Pressure: 30.04 "Hg

Humidity: 74%

Dew Point: 43 °F

Location of IbizaLocation

Past Weather in Ibiza — Graph

°F

Ibiza Temperature Yesterday

Maximum temperature yesterday: 57 °F (at 2:00 pm)
Minimum temperature yesterday: 49 °F (at 6:00 am)
Average temperature yesterday: 51 °F

High & Low Weather Summary for the Past Weeks

 TemperatureHumidityPressure
High61 °F (Jan 12, 2:00 pm)96% (Jan 9, 3:00 am)30.33 "Hg (Jan 9, 3:00 am)
Low36 °F (Jan 17, 9:00 pm)36% (Jan 13, 4:00 pm)29.70 "Hg (Jan 21, 4:00 pm)
Average51 °F71%30.04 "Hg
* Reported Jan 9 3:00 am — Jan 24 3:00 am, Ibiza, Weather by CustomWeather, © 2017

Note: Actual official high and low records may vary slightly from our data, if they occured in-between our weather recording intervals... More about our weather records

Advertising

Ibiza Weather History for the Previous 24 Hours

Scroll right to see more
 ConditionsComfort  
Time TempWeatherWind HumidityBarometerVisibility
3:00 am
Tue, Jan 24
51 °FCool.7 mph74%30.04 "HgN/A
2:00 am51 °FCool.6 mph80%30.04 "HgN/A
1:00 am52 °FCool.7 mph74%30.04 "HgN/A
12:00 am50 °FCool.8 mph78%30.05 "HgN/A
11:00 pm
Mon, Jan 23
51 °FFog.8 mph87%30.05 "HgN/A
10:00 pm50 °FPassing clouds.13 mph82%30.03 "Hg9 mi
9:00 pm50 °FFog.10 mph87%30.03 "HgN/A
8:00 pm51 °FFog.16 mph87%30.03 "HgN/A
7:00 pm51 °FDrizzle. Overcast.13 mph90%30.01 "Hg6 mi
6:00 pm51 °FFog.15 mph85%29.99 "HgN/A
5:00 pm50 °FFog.6 mph89%29.98 "HgN/A
4:00 pm50 °FLight rain. Overcast.9 mph90%29.97 "Hg6 mi
3:00 pm52 °FFog.15 mph80%29.96 "HgN/A
2:00 pm57 °FCool.17 mph70%29.95 "HgN/A
1:00 pm54 °FOvercast.12 mph81%29.97 "Hg7 mi
12:00 pm53 °FFog.16 mph75%29.99 "HgN/A
11:00 am54 °FCool.14 mph73%29.97 "HgN/A
10:00 am53 °FLight rain. Partly sunny.17 mph79%29.96 "Hg9 mi
9:00 am51 °FCool.12 mph80%29.95 "HgN/A
8:00 am50 °FCool.12 mph82%29.93 "HgN/A
7:00 am51 °FOvercast.14 mph85%29.93 "Hg9 mi
6:00 am49 °FFog.8 mph88%29.91 "HgN/A
5:00 am49 °FCool.7 mph84%29.90 "HgN/A
4:00 am51 °FCool.12 mph79%29.91 "HgN/A
Weather by CustomWeather, © 2017

See weather overviewHow to use our weather pages